Regional Weather Roundup
Issued by NWS

Home | Current Version | Previous Version | Graphics & Text | Print | Product List | Glossary On
Versions: 1 2 3 4 5 6 7 8 9 10 11 12 13 14 15 16 17 18 19 20 21 22 23 24 25 26 27 28 29 30 31 32 33 34 35 36 37 38 39 40 41 42 43 44 45 46 47 48 49 50
000
ASUS43 KDMX 141103
RWRIA

WEATHER ROUNDUP FOR IOWA
NATIONAL WEATHER SERVICE DES MOINES IA
500 AM CST SUN FEB 14 2016

NOTE: "FAIR" INDICATES FEW OR NO CLOUDS BELOW 12,000 FEET WITH NO
SIGNIFICANT WEATHER AND/OR OBSTRUCTIONS TO VISIBILITY.

* - THESE STATIONS ARE NOT NWS STATIONS...THUS NOT UNDER NWS
QUALITY CONTROL.  THEY ALSO DO NOT REPORT WEATHER SUCH
AS PRECIPITATION OR FOG.

IAZ001>003-012>014-020>022-031>034-043>046-141200-
   NORTHWEST IOWA

CITY           SKY/WX    TMP DP  RH WIND       PRES   REMARKS
CARROLL *      LGT SNOW  16  12  86 SE20      29.98F WCI  -1
CHEROKEE *     CLOUDY    14  10  85 SE13      29.97F WCI   0
DENISON *      FLURRIES  16  12  86 SE13G20   29.93F WCI   2
LE MARS *      LGT SNOW  18  12  79 SE12G18   29.93F WCI   5
ORANGE CITY *  LGT SNOW  14  12  92 SE13      29.91F WCI   0
SHELDON *      SNOW      12  10  92 SE21      29.93F VSB 1/4 WCI  -6
SIOUX CITY     CLOUDY    19   9  65 S13       29.93F WCI   6
SPENCER        SNOW      13   8  81 SE21      29.98F VSB 1/2 WCI  -5
STORM LAKE *   LGT SNOW  12  12 100 SE23G29   29.95F WCI  -7
$$

IAZ055>058-069>071-079>083-090>094-141200-
   SOUTHWEST IOWA

CITY           SKY/WX    TMP DP  RH WIND       PRES   REMARKS
ATLANTIC *     LGT SNOW  18  14  86 SE12G18   29.97F WCI   5
AUDUBON *      LGT SNOW  16  12  86 SE14G21   29.97F WCI   1
CLARINDA *     LGT SNOW  19  16  86 SE14      30.02F WCI   6
COUNCIL BLFS * CLOUDY    19  10  68 S16G24    29.95F WCI   5
CRESTON *      LGT SNOW  18  12  79 SE18G25   30.02F WCI   2
HARLAN  *      FLURRIES  18  14  86 SE15G22   29.99F WCI   3
LAMONI         CLOUDY    20   6  55 SE12      30.05F WCI   8
RED OAK *      CLOUDY    19  14  79 SE13G18   29.99F WCI   7
SHENANDOAH *   CLOUDY    23   9  54 SE13G20   30.01F WCI  11
$$

IAZ047>049-059>061-072>074-084-141200-
   CENTRAL IOWA

CITY           SKY/WX    TMP DP  RH WIND       PRES   REMARKS
AMES           CLOUDY    15  11  83 SE16      30.07F WCI  -1
ANKENY *       CLOUDY    16  10  79 SE16      30.07F WCI   0
BOONE *        CLOUDY    14  12  92 SE24G30   30.03F FOG     WCI  -5
CHARITON *     CLOUDY    18   9  68 SE14G23   30.07F WCI   4
DES MOINES     FLURRIES  17   9  70 SE14      30.08F WCI   3
GRINNELL*      CLOUDY    16  12  86 SE18      30.11F WCI  -1
KNOXVILLE *    CLOUDY    18   9  68 SE13      30.09F WCI   4
MARSHALLTOWN   CLOUDY    16  11  80 SE20      30.10F WCI  -1
NEWTON *       FLURRIES  16  14  93 SE18      30.10F WCI  -1
PELLA *        CLOUDY    17  12  82 SE14      30.12F WCI   3
$$

IAZ004>006-015-016-023>025-035-036-141200-
   NORTH CENTRAL IOWA

CITY           SKY/WX    TMP DP  RH WIND       PRES   REMARKS
ALGONA *       CLOUDY    14  12  92 SE29      30.00F FOG     WCI  -7
CLARION *      CLOUDY    14  10  85 SE22G31   30.03F HAZE    WCI  -4
ESTHERVILLE    SNOW      12  10  92 SE26      29.99F VSB 1/2 WCI  -8
FORT DODGE *   CLOUDY    14   7  73 SE13G21   30.03F WCI   0
MASON CITY     LGT SNOW  12   9  87 SE20      30.08F FOG     WCI  -6
FOREST CITY *  LGT SNOW  14  10  85 SE17      30.05F WCI  -3
WEBSTER CITY * LGT SNOW  16  12  86 SE22      30.02F WCI  -2
IOWA FALLS *   CLOUDY    16  13  86 SE20      30.08F FOG     WCI  -1
$$

IAZ007>011-017>019-026>030-037>042-050>054-066-141200-
   NORTHEAST IOWA

CITY           SKY/WX    TMP DP  RH WIND       PRES   REMARKS
CEDAR RAPIDS   FLURRIES  16  12  84 SE14      30.19F WCI   2
CHARLES CITY * FLURRIES  14  10  85 SE17G23   30.12F WCI  -3
CLINTON *      FLURRIES  17   6  62 SE16      30.27F WCI   2
DUBUQUE        CLOUDY    13   4  67 SE13      30.22F WCI  -2
MONTICELLO *   CLOUDY    16   7  67 SE13      30.22F WCI   2
OELWEIN *      CLOUDY    14   9  79 SE17      30.16F WCI  -3
WATERLOO       CLOUDY    15   8  73 SE16      30.14F WCI  -1
$$

IAZ064-065-067-068-078-141200-
   EAST CENTRAL IOWA

CITY           SKY/WX    TMP DP  RH WIND       PRES   REMARKS
DAVENPORT      FLURRIES  17   6  62 SE17      30.25F WCI   1
IOWA CITY      CLOUDY    16  12  84 SE15G25   30.23F WCI   1
MT. PLEASANT * CLOUDY    18  15  86 SE16      30.18F WCI   4
MUSCATINE *    CLOUDY    18  12  79 SE13      30.26F WCI   4
QUAD CITIES    LGT SNOW  17   9  70 SE9       30.28F WCI   6
$$

IAZ062-063-075>077-085>089-095>099-141200-
   SOUTHEAST IOWA

CITY           SKY/WX    TMP DP  RH WIND       PRES   REMARKS
BURLINGTON     CLOUDY    16  13  88 SE15      30.22F WCI   1
FAIRFIELD *    CLOUDY    16  12  86 SE16G24   30.16F WCI   0
FORT MADISON * CLOUDY    16  12  86 E17       30.20F WCI   0
KEOKUK *       CLOUDY    19  14  79 SE17      30.19F WCI   4
OSKALOOSA *    CLOUDY    16  12  86 SE18      30.14F WCI  -1
OTTUMWA        CLOUDY    17  12  80 SE16      30.13F WCI   2
WASHINGTON *   CLOUDY    16  12  86 SE17      30.20F WCI   0
$$

ABBREVIATIONS USED IN REMARKS
   TC - TEMPERATURES IN CELSIUS
  WCI - WIND CHILL INDEX
   HX - HEAT INDEX
  VSB - VISIBILITY
$$




USA.gov is the U.S. government's official web portal to all federal, state and local government web resources and services.